Wind_Speed
1 1 2 2 3 3 3 4 4 5 5 5 5 5 6 6 6 5 5 4 3 2 3 4 5 5 6 6 6 7 7 7 7 6 7 7 7 7 7 8 8 8 8
2 2 2 3 3 4 4 5 5 6 5 5 5 5 6 6 6 6 6 5 4 4 4 5 5 6 6 7 7 7 7 8 8 7 7 8 8 8 7 8 9 9 10
3 3 3 4 4 4 5 5 6 6 6 6 6 6 6 6 6 6 6 5 5 5 5 5 6 6 7 7 7 8 8 8 8 8 9 9 9 8 8 8 9 9 10
4 4 4 4 5 5 6 6 6 7 7 6 6 6 6 6 6 7 6 6 6 6 6 6 7 7 7 7 8 8 8 8 8 9 9 10 10 10 9 9 9 10 11
4 4 5 5 6 6 6 6 7 7 7 7 7 7 7 6 6 7 6 6 6 6 6 6 7 7 7 8 8 8 8 8 8 9 9 9 9 10 10 10 10 10 11
4 5 5 6 6 7 7 7 7 7 7 7 7 7 7 7 7 7 7 6 6 6 6 7 7 7 7 8 7 7 8 9 9 9 9 9 9 9 10 10 10 10 9
5 5 6 6 6 7 7 7 7 7 8 7 7 7 7 7 7 8 7 7 7 7 7 7 7 7 7 7 7 8 9 9 10 10 9 9 9 10 10 10 10 10 9
6 6 7 7 7 7 7 7 8 8 7 8 8 7 7 7 8 8 7 7 7 7 7 7 7 8 7 7 7 8 9 10 10 10 10 9 10 10 10 10 10 10 10
7 7 7 7 7 7 8 8 8 8 8 8 8 7 7 7 7 7 8 8 8 7 8 8 8 8 8 8 8 9 9 10 10 10 10 9 10 10 10 10 11 11 10
6 7 7 7 8 8 8 8 8 8 7 7 7 7 8 7 7 8 8 8 9 9 9 9 9 9 9 9 9 9 9 9 10 9 9 10 10 11 11 11 11 11 11
6 6 7 7 8 8 8 8 8 8 8 7 8 8 8 8 8 8 8 8 9 9 9 9 9 9 9 9 10 10 9 9 9 10 10 10 11 11 11 11 11 11 11
6 6 7 7 7 8 8 8 8 8 8 8 9 9 9 9 9 9 9 9 9 9 9 9 10 10 9 9 10 10 10 10 10 10 10 11 11 12 11 12 12 12 12
7 6 7 7 7 7 7 8 8 8 8 8 8 9 9 9 9 9 10 10 10 10 10 10 10 10 10 10 10 10 10 10 11 11 11 12 12 12 12 12 12 13 13
6 7 6 7 7 7 7 8 8 9 8 9 9 9 9 9 10 10 10 10 10 10 10 9 10 10 10 10 10 10 10 11 11 11 12 12 12 12 12 12 13 13 14
7 7 7 8 8 8 7 8 9 9 9 9 9 9 10 9 9 9 9 9 9 9 9 9 9 10 10 10 10 10 10 10 10 11 11 11 12 12 12 13 13 13 14
7 8 8 8 9 8 8 9 9 10 10 10 10 10 9 9 9 9 9 9 9 9 9 9 10 11 11 11 11 11 11 11 11 11 12 12 12 12 12 13 13 13 13
9 9 9 9 9 9 9 10 10 10 10 10 9 9 9 9 9 9 10 10 10 10 10 10 11 11 11 11 11 11 11 11 11 12 12 12 12 12 12 13 13 14 14
10 10 9 10 10 10 10 10 10 10 10 10 9 8 8 9 9 9 9 9 10 10 10 10 10 11 11 11 11 11 11 12 12 12 12 13 13 13 13 13 13 14 14
10 10 11 10 10 11 11 10 10 10 10 9 9 8 8 9 9 8 8 8 9 10 10 10 10 11 11 11 11 11 11 12 12 12 12 13 13 14 14 14 14 15 15
10 11 11 11 11 11 11 11 10 9 9 9 9 8 8 8 8 8 8 9 9 10 10 10 10 10 11 11 11 11 11 11 12 12 12 12 13 14 15 15 15 15 15
12 12 11 11 11 11 10 10 10 9 9 9 9 9 8 8 9 9 9 10 10 11 11 11 10 10 10 10 11 11 12 12 12 12 13 13 14 14 15 16 16 15 15
12 12 12 12 12 12 11 11 10 10 10 10 10 9 9 9 9 10 10 11 11 11 11 11 11 11 11 11 11 12 12 12 12 13 13 14 14 14 15 15 15 15 15
13 13 13 13 12 12 12 11 11 11 11 11 10 10 10 10 10 11 11 11 12 12 12 12 11 12 12 12 12 12 13 13 14 14 14 15 15 15 15 15 15 15 14
13 13 14 14 13 12 12 12 12 12 11 11 11 11 10 11 11 11 12 12 12 13 13 13 13 13 13 13 13 13 14 14 14 15 16 16 17 17 16 16 16 15 15
14 14 15 14 13 12 12 12 12 12 13 13 13 12 12 12 12 12 13 13 13 13 13 14 14 14 14 14 14 14 15 15 16 16 16 17 18 18 18 18 17 16 16
15 15 14 14 13 13 13 13 13 13 13 14 14 13 13 12 12 13 13 14 14 14 14 14 15 15 15 15 15 16 16 16 17 18 18 18 19 19 19 19 19 18 17
Wind_Direction
34 31 20 12 1 354 346 343 345 347 349 350 352 351 350 350 345 338 331 320 313 290 276 274 276 276 279 282 281 283 281 279 278 271 269 269 272 269 269 265 264 265 265
329 339 344 338 331 329 328 330 333 335 335 334 337 338 339 342 339 332 323 316 299 287 278 277 279 278 278 280 280 282 281 275 275 276 275 271 271 269 270 270 268 268 267
309 313 313 315 316 319 319 321 323 325 322 321 323 325 325 327 330 328 322 316 303 292 284 280 280 277 275 275 277 279 277 274 274 274 275 275 275 273 274 275 274 272 270
302 303 303 305 310 312 311 312 316 320 315 313 313 314 314 315 317 314 314 307 296 288 286 285 281 276 274 275 276 275 270 272 272 272 272 274 276 276 277 276 276 277 278
303 301 299 301 303 305 306 309 313 318 313 309 308 306 308 310 313 311 308 305 295 290 287 286 283 279 278 278 277 275 270 274 271 270 269 269 271 275 276 278 278 280 282
306 306 304 303 304 305 303 306 309 311 311 307 307 305 303 304 306 304 301 299 294 291 290 289 291 287 285 280 277 275 276 277 275 271 268 268 271 274 276 277 277 282 280
300 302 304 304 305 304 304 305 306 305 304 306 303 303 302 303 306 303 294 290 290 290 289 291 294 291 287 280 276 274 273 278 275 271 270 269 271 275 276 278 279 280 280
301 298 299 302 305 306 305 306 304 303 300 300 299 297 298 302 304 305 301 296 292 289 287 288 291 289 282 277 276 273 272 274 270 268 267 270 272 274 276 277 277 280 281
300 302 301 301 302 304 304 304 303 301 300 299 298 296 296 296 295 296 295 294 290 289 286 285 288 287 281 277 278 276 274 275 271 268 267 269 272 273 273 275 275 277 281
301 302 303 301 299 298 300 300 301 300 297 294 293 294 296 297 293 292 291 290 288 286 285 282 286 287 281 277 277 278 274 275 271 268 268 270 274 273 274 275 278 278 278
302 304 304 305 303 300 299 300 300 297 295 294 294 296 295 296 296 292 288 288 285 284 283 281 286 287 280 276 276 276 274 279 278 272 271 273 275 275 276 277 280 278 277
300 305 306 308 310 307 304 303 300 298 296 295 295 294 294 295 294 290 286 286 285 282 280 281 282 283 282 279 276 276 275 278 278 276 275 276 275 275 276 277 276 276 279
298 301 305 307 309 309 307 304 303 301 299 297 296 292 291 292 293 290 286 283 282 280 280 282 281 280 280 279 279 279 278 278 278 278 277 279 277 276 276 275 275 276 278
299 303 308 310 308 308 307 307 305 303 302 298 294 291 291 292 292 290 286 282 280 282 284 280 280 279 282 284 281 279 279 280 280 279 280 279 278 278 278 279 278 278 278
296 301 305 310 309 308 307 307 306 302 300 298 291 291 289 288 290 290 286 286 285 285 283 280 278 281 282 282 283 282 280 280 280 281 282 281 280 278 278 278 278 280 280
296 298 302 306 305 304 303 302 305 305 297 294 290 287 287 285 285 288 287 286 283 282 280 279 284 287 284 282 282 279 277 278 278 279 280 281 283 283 279 278 279 279 278
291 295 297 299 301 301 300 301 303 303 300 295 291 287 286 285 286 290 291 290 288 287 284 283 286 287 285 284 284 280 277 278 280 279 279 279 280 281 282 278 277 277 276
285 286 289 291 293 294 295 297 300 304 304 298 291 285 284 286 288 291 293 294 293 293 293 285 285 285 285 284 283 283 280 279 281 281 280 279 278 279 281 278 277 278 277
282 283 284 286 288 289 289 292 295 299 301 297 293 286 284 286 288 292 295 294 294 295 294 289 286 286 285 284 286 286 285 283 282 283 282 281 278 277 278 279 279 279 278
281 285 287 286 287 285 283 286 289 294 297 296 293 291 285 285 288 291 294 294 294 295 297 295 289 287 288 287 287 289 289 288 285 285 286 286 284 282 280 281 280 278 280
280 282 286 285 286 283 280 283 286 287 289 292 292 293 289 286 289 291 295 297 294 296 297 297 294 289 287 286 289 291 290 288 286 287 289 288 286 285 285 283 281 280 279
280 282 285 284 283 279 277 278 280 283 283 283 285 288 288 288 289 289 290 294 293 292 293 293 292 290 289 288 289 292 292 291 289 289 290 290 287 287 286 285 284 281 281
280 282 285 285 282 278 276 274 274 278 280 280 280 283 282 285 289 293 290 289 290 290 290 290 290 289 290 290 290 291 291 290 290 290 291 291 289 289 288 286 283 282 281
278 280 283 283 281 277 274 271 272 274 274 275 277 279 279 281 284 287 288 289 289 288 288 289 289 287 287 289 289 289 290 290 292 293 291 290 289 287 286 285 282 279 278
275 278 280 280 279 276 274 271 270 271 271 272 273 275 277 279 283 286 287 287 285 285 286 288 289 288 286 287 288 289 290 289 290 290 289 290 290 287 285 283 281 278 277
275 276 277 278 278 277 274 271 270 267 267 270 272 272 274 279 283 285 287 287 287 284 286 286 286 287 287 286 286 287 289 289 289 288 289 290 292 291 286 284 282 280 277
Height
5872 5872 5872 5872 5872 5872 5872 5871 5870 5870 5870 5869 5869 5868 5868 5867 5867 5866 5866 5865 5864 5864 5864 5865 5865 5866 5866 5866 5867 5867 5868 5868 5868 5868 5869 5869 5869 5870 5870 5870 5870 5870 5871
5872 5872 5872 5872 5872 5871 5871 5870 5870 5870 5869 5869 5868 5868 5867 5867 5866 5866 5865 5865 5865 5864 5864 5865 5865 5865 5865 5865 5866 5866 5866 5866 5866 5867 5867 5868 5868 5868 5868 5868 5869 5869 5869
5872 5872 5871 5871 5871 5871 5870 5870 5869 5869 5869 5868 5868 5867 5867 5866 5866 5865 5865 5864 5864 5864 5864 5864 5864 5864 5864 5864 5865 5865 5865 5865 5865 5865 5866 5866 5866 5866 5867 5866 5866 5866 5866
5871 5871 5871 5871 5870 5870 5870 5869 5869 5868 5867 5867 5867 5866 5866 5865 5865 5864 5864 5863 5863 5863 5863 5863 5863 5863 5863 5863 5863 5863 5863 5863 5864 5864 5864 5864 5865 5865 5865 5865 5864 5864 5863
5870 5870 5870 5870 5869 5869 5868 5868 5867 5867 5866 5866 5865 5865 5864 5864 5863 5863 5863 5862 5862 5862 5862 5862 5862 5862 5862 5862 5862 5862 5862 5862 5862 5862 5862 5862 5863 5863 5863 5863 5862 5861 5859
5870 5869 5869 5869 5868 5868 5867 5867 5866 5865 5864 5864 5864 5863 5863 5862 5862 5861 5861 5861 5861 5861 5861 5860 5860 5860 5860 5860 5860 5860 5860 5860 5860 5860 5860 5861 5861 5861 5861 5860 5860 5859 5857
5869 5868 5868 5868 5867 5866 5866 5865 5864 5864 5863 5862 5862 5862 5861 5861 5860 5860 5860 5859 5859 5859 5859 5859 5859 5859 5858 5858 5858 5858 5858 5858 5858 5858 5858 5859 5859 5859 5858 5858 5858 5857 5856
5868 5867 5867 5866 5866 5865 5864 5863 5863 5862 5861 5861 5860 5860 5860 5859 5859 5858 5858 5858 5858 5858 5858 5857 5857 5857 5857 5857 5856 5856 5856 5856 5856 5856 5856 5856 5856 5856 5856 5856 5856 5856 5855
5867 5866 5865 5865 5864 5864 5863 5862 5861 5860 5860 5859 5859 5858 5858 5858 5857 5857 5857 5856 5856 5856 5856 5856 5856 5855 5855 5855 5855 5854 5854 5854 5854 5854 5854 5854 5854 5854 5854 5854 5854 5853 5853
5866 5865 5864 5864 5863 5862 5861 5861 5860 5859 5858 5858 5857 5857 5856 5856 5855 5855 5855 5855 5854 5854 5854 5854 5854 5853 5853 5853 5852 5852 5852 5852 5852 5852 5852 5852 5852 5852 5852 5851 5851 5851 5851
5864 5864 5863 5862 5861 5861 5860 5859 5858 5857 5857 5856 5856 5855 5855 5854 5854 5853 5853 5852 5852 5852 5852 5852 5851 5851 5850 5850 5850 5850 5850 5849 5849 5849 5849 5849 5849 5849 5849 5849 5849 5849 5848
5863 5862 5861 5861 5860 5859 5858 5857 5856 5855 5855 5854 5854 5853 5853 5852 5852 5851 5851 5850 5850 5850 5849 5849 5849 5849 5848 5848 5848 5848 5847 5847 5847 5847 5847 5847 5847 5847 5847 5846 5846 5846 5846
5861 5861 5860 5859 5858 5857 5856 5856 5855 5854 5853 5852 5852 5851 5851 5850 5850 5849 5848 5848 5848 5848 5847 5847 5846 5846 5846 5846 5845 5845 5845 5845 5845 5845 5844 5844 5844 5844 5844 5844 5844 5843 5843
5860 5859 5858 5858 5857 5856 5855 5854 5853 5852 5851 5850 5850 5849 5848 5848 5847 5847 5846 5846 5845 5845 5845 5844 5844 5844 5843 5843 5843 5843 5842 5842 5842 5842 5841 5842 5841 5841 5841 5841 5841 5840 5840
5859 5858 5857 5856 5855 5854 5853 5852 5851 5850 5849 5848 5847 5846 5846 5845 5845 5845 5844 5843 5843 5843 5842 5842 5842 5841 5841 5841 5840 5840 5840 5840 5839 5839 5839 5839 5839 5838 5838 5838 5837 5837 5837
5857 5856 5855 5854 5853 5852 5851 5850 5849 5848 5847 5846 5845 5844 5843 5843 5843 5842 5842 5841 5841 5840 5840 5839 5839 5839 5838 5838 5838 5838 5837 5837 5837 5836 5836 5836 5836 5835 5835 5835 5834 5834 5834
5855 5854 5853 5852 5851 5850 5849 5848 5847 5846 5845 5843 5842 5841 5841 5841 5840 5840 5839 5839 5838 5837 5837 5837 5836 5836 5835 5835 5835 5835 5834 5834 5834 5833 5833 5833 5833 5832 5831 5831 5831 5831 5831
5852 5851 5851 5850 5849 5847 5847 5845 5844 5843 5842 5841 5840 5839 5839 5838 5838 5837 5837 5836 5835 5835 5834 5834 5833 5833 5832 5832 5832 5831 5831 5831 5831 5830 5830 5829 5829 5829 5828 5827 5827 5827 5827
5849 5849 5848 5847 5846 5845 5844 5843 5842 5841 5840 5839 5838 5837 5836 5836 5835 5835 5834 5834 5833 5832 5832 5831 5831 5830 5830 5829 5829 5829 5828 5828 5827 5827 5826 5826 5826 5825 5825 5824 5824 5823 5823
5847 5846 5845 5844 5843 5842 5841 5840 5840 5839 5838 5837 5836 5835 5834 5834 5833 5833 5832 5831 5831 5830 5829 5829 5828 5827 5827 5826 5826 5826 5825 5825 5824 5824 5823 5823 5822 5822 5821 5820 5820 5819 5819
5844 5843 5842 5841 5840 5839 5838 5837 5837 5836 5835 5834 5834 5833 5832 5831 5831 5830 5829 5829 5828 5828 5827 5826 5825 5825 5824 5824 5823 5823 5822 5822 5821 5820 5820 5819 5819 5818 5817 5816 5816 5815 5815
5840 5839 5838 5838 5836 5835 5835 5834 5834 5833 5832 5832 5831 5830 5829 5829 5828 5827 5827 5826 5825 5825 5824 5823 5823 5822 5821 5821 5820 5820 5819 5819 5818 5817 5816 5816 5815 5814 5813 5812 5812 5811 5810
5836 5835 5834 5833 5832 5832 5831 5830 5830 5830 5829 5828 5828 5827 5826 5826 5825 5825 5824 5823 5822 5822 5821 5820 5820 5819 5818 5818 5817 5817 5816 5815 5814 5814 5812 5812 5811 5810 5809 5808 5808 5807 5806
5832 5831 5830 5829 5828 5827 5827 5827 5826 5826 5825 5825 5824 5824 5823 5822 5822 5821 5821 5820 5819 5819 5818 5817 5817 5816 5815 5814 5814 5813 5812 5811 5810 5810 5809 5807 5806 5805 5804 5804 5803 5803 5802
5828 5827 5826 5825 5824 5823 5823 5822 5822 5822 5822 5821 5820 5820 5820 5819 5818 5818 5817 5816 5816 5815 5814 5814 5813 5812 5811 5811 5810 5809 5808 5807 5806 5806 5805 5803 5802 5800 5799 5799 5798 5798 5798
5824 5823 5822 5821 5820 5819 5819 5818 5818 5818 5817 5817 5816 5816 5816 5815 5815 5814 5813 5813 5812 5811 5811 5810 5809 5808 5808 5807 5806 5805 5804 5803 5802 5801 5800 5798 5797 5795 5794 5793 5793 5793 5792